EW5697 Weather Reports


time (UTC)temp
C
wind
direction
speed
KPH
gust
KPH
rain 1hr
cm
rain 24hr
cm
rain mn
cm
humidity
%
barometer
mb
20260506103038 10 163 0.0 0.0 0.00 0.03 0.00 88 1020.2
20260506101531 10 178 0.0 0.0 0.00 0.03 0.00 88 1020.3
20260506100036 10 160 0.0 0.0 0.00 0.03 0.00 88 1020.3
20260506094535 10 161 0.0 0.0 0.00 0.03 0.00 87 1020.3
20260506093034 10 168 0.0 0.0 0.00 0.03 0.00 87 1020.1
20260506091528 10 169 0.0 0.0 0.00 0.03 0.00 87 1020.1
20260506090025 10 161 0.0 0.0 0.00 0.03 0.00 87 1020.0
20260506084525 10 162 0.0 0.0 0.00 0.03 0.00 87 1020.0
20260506083023 10 149 0.0 0.0 0.00 0.03 0.00 86 1020.0
20260506081530 10 149 0.0 0.0 0.00 0.03 0.00 86 1019.9
20260506073018 10 151 0.0 0.0 0.00 0.03 0.00 85 1019.6
20260506071516 11 143 0.0 0.0 0.00 0.03 0.00 84 1019.5
20260506061514 11 143 0.0 0.0 0.00 0.03 0.03 80 1019.2
20260506044502 13 126 0.0 0.0 0.00 0.03 0.03 66 1018.4
20260506043002 15 27 0.0 0.0 0.00 0.03 0.03 62 1018.2
20260506041600 16 20 0.0 0.0 0.00 0.03 0.03 57 1017.9
20260506040058 17 11 0.0 0.0 0.00 0.03 0.03 53 1017.7
20260506034600 17 14 0.0 0.0 0.00 0.03 0.03 46 1017.4
20260506033057 17 352 0.0 0.0 0.00 0.03 0.03 41 1017.0
20260506031559 19 337 0.0 0.0 0.00 0.03 0.03 39 1016.9
20260506030057 20 339 0.0 0.0 0.00 0.03 0.03 37 1016.6
20260506024600 21 339 0.0 0.0 0.00 0.03 0.03 36 1016.3
20260506023059 22 279 0.0 0.0 0.00 0.03 0.03 34 1016.0
20260506021555 23 278 0.0 0.0 0.00 0.03 0.03 33 1015.7
20260506020054 24 4 0.0 0.0 0.00 0.03 0.03 31 1015.6
20260506014554 24 64 0.0 0.0 0.00 0.03 0.03 30 1015.5
20260506013053 25 85 0.0 0.0 0.00 0.03 0.03 29 1015.3
20260506011553 25 34 0.0 0.0 0.00 0.03 0.03 31 1015.2
20260506010051 25 322 0.0 0.0 0.00 0.03 0.03 29 1015.2
20260506004551 25 54 0.0 0.0 0.00 0.03 0.03 28 1015.2
20260506003050 26 296 0.0 0.0 0.00 0.03 0.03 29 1015.0
20260506001550 26 312 0.0 0.0 0.00 0.03 0.03 30 1015.1
20260506000046 26 295 0.0 0.0 0.00 0.03 0.03 29 1015.2
20260505234549 26 339 0.0 0.0 0.00 0.03 0.03 30 1015.2
20260505233042 26 245 0.0 0.0 0.00 0.03 0.03 30 1015.3
20260505231551 26 62 0.0 0.0 0.00 0.03 0.03 29 1015.4
20260505230050 26 40 0.0 0.0 0.00 0.03 0.03 28 1015.7
20260505224536 25 280 0.0 4.8 0.00 0.08 0.03 31 1015.7
20260505223034 25 303 0.0 0.0 0.00 0.08 0.03 30 1015.7
20260505221534 25 66 0.0 0.0 0.00 0.08 0.03 30 1015.9
20260505220033 25 320 0.0 0.0 0.00 0.08 0.03 31 1016.0
20260505214530 25 71 0.0 0.0 0.00 0.08 0.03 30 1016.2
20260505213028 25 314 0.0 0.0 0.00 0.08 0.03 33 1016.3
20260505211528 25 3 0.0 0.0 0.00 0.08 0.03 33 1016.4
20260505210024 24 70 0.0 0.0 0.00 0.08 0.03 35 1016.7
20260505204520 23 327 0.0 0.0 0.00 0.08 0.03 37 1016.7
20260505203020 22 3 0.0 0.0 0.00 0.08 0.03 39 1016.7
20260505201614 22 58 0.0 0.0 0.00 0.08 0.03 36 1016.9
20260505200012 22 353 0.0 0.0 0.00 0.08 0.03 39 1017.0
20260505194508 21 297 0.0 0.0 0.00 0.08 0.03 47 1017.1
20260505193004 20 20 0.0 0.0 0.00 0.08 0.03 46 1017.3
20260505191627 19 9 0.0 0.0 0.00 0.08 0.03 50 1017.3
20260505190058 18 270 0.0 0.0 0.00 0.08 0.03 51 1017.5
20260505184553 17 49 0.0 0.0 0.00 0.08 0.03 53 1017.6
20260505183049 17 50 0.0 0.0 0.00 0.08 0.03 57 1017.6
20260505181544 16 65 0.0 0.0 0.00 0.08 0.03 60 1017.6
20260505180058 16 32 0.0 0.0 0.00 0.08 0.03 69 1017.6
20260505174546 15 335 0.0 0.0 0.00 0.08 0.03 74 1017.5
20260505173034 14 315 0.0 0.0 0.00 0.08 0.03 74 1017.5
20260505171532 13 40 0.0 0.0 0.00 0.08 0.03 81 1017.5
20260505170025 13 48 0.0 0.0 0.00 0.08 0.03 84 1017.6
20260505164522 12 299 0.0 0.0 0.00 0.08 0.03 86 1017.6
20260505163017 11 341 0.0 0.0 0.00 0.08 0.03 89 1017.6
20260505161512 10 24 0.0 0.0 0.00 0.08 0.03 93 1017.7
20260505153005 8 184 0.0 0.0 0.03 0.08 0.03 94 1017.7
20260505151559 8 143 0.0 0.0 0.03 0.08 0.03 94 1017.6
20260505124541 5 143 0.0 0.0 0.00 0.05 0.00 92 1016.5
20260505123040 6 143 0.0 0.0 0.00 0.05 0.00 92 1016.3
20260505121539 6 143 0.0 0.0 0.00 0.05 0.00 92 1016.3
20260505120035 6 143 0.0 0.0 0.00 0.05 0.00 92 1016.2
20260505114533 6 143 0.0 0.0 0.00 0.05 0.00 92 1016.1
20260505113031 7 143 0.0 0.0 0.00 0.05 0.00 92 1016.1
20260505111530 7 143 0.0 0.0 0.00 0.05 0.00 92 1016.1